Metcalfe, MS

1:30 AM CDT on August 29, 2016 (GMT -0500)
Mid Delta Regional

Weather History for KGLH - July, 2013

Change the Weather History Date:

Thursday, July 18, 2013

  Actual Average Record
Temperature  
Mean Temperature 82 °F 82 °F  
Max Temperature 94 °F 92 °F 105 °F (1980)
Min Temperature 69 °F 72 °F 60 °F (1987)
Degree Days  
Heating Degree Days 0 0  
Month to date heating degree days 0 0  
Since 1 June heating degree days 0 0  
Since 1 July heating degree days 0 0  
Cooling Degree Days 17 17  
Month to date cooling degree days 275 304  
Year to date cooling degree days 1017 1046  
Since 1 June cooling degree days 734 724  
Growing Degree Days 31 (Base 50)    
Moisture  
Dew Point 71 °F    
Average Humidity 78    
Maximum Humidity 100    
Minimum Humidity 56    
Precipitation  
Precipitation 0.31 in 0.13 in 4.28 in (2014)
Month to date precipitation 1.43 2.50  
Year to date precipitation 27.64 30.80  
Sea Level Pressure  
Sea Level Pressure 30.10 in    
Wind  
Wind Speed 2 mph (NW)    
Max Wind Speed 22 mph    
Max Gust Speed 29 mph    
Visibility 6 miles    
Events Fog , Rain , Thunderstorm    
T = Trace of Precipitation, MM = Missing Value Source: NWS Daily Summary

Daily Weather History Graph

Daily Weather History Graph

Search for Another Location

Airport or City:

Trip Planner

Search our weather history database for the weather conditions in past years. The results will help you decide how hot, cold, wet, or windy it might be!

Date:

Astronomy

Jul. 18, 2013 Rise Set
Actual Time 6:07 AM CDT 8:12 PM CDT
Civil Twilight 5:39 AM CDT 8:41 PM CDT
Nautical Twilight 5:04 AM CDT 9:15 PM CDT
Astronomical Twilight 4:27 AM CDT 9:51 PM CDT
Moon 4:11 PM CDT (7/18) 1:54 AM CDT (7/18)
Length of Visible Light 15h 02m
Length of Day
14h 05m
Waxing Gibbous, 77% of the Moon is Illuminated
Jul 18
Waxing Gibbous
Jul 22
Full
Jul 29
Last Quarter
Aug 6
New
Aug 14
First Quarter

Hourly Weather History & Observations

Time (CDT) Temp. Heat Index Dew Point Humidity Pressure Visibility Wind Dir Wind Speed Gust Speed Precip Events Conditions
12:53 AM 77.0 °F - 72.0 °F 84% 30.15 in 10.0 mi Calm Calm - N/A   Clear
1:53 AM 77.0 °F - 72.0 °F 84% 30.14 in 10.0 mi Calm Calm - N/A   Clear
2:53 AM 75.0 °F - 72.0 °F 90% 30.14 in 10.0 mi Calm Calm - N/A   Clear
3:53 AM 75.9 °F - 72.0 °F 87% 30.14 in 10.0 mi Calm Calm - N/A   Clear
4:53 AM 75.0 °F - 72.0 °F 90% 30.14 in 9.0 mi Calm Calm - N/A   Clear
5:53 AM 75.0 °F - 72.0 °F 90% 30.14 in 9.0 mi Calm Calm - N/A   Clear
6:53 AM 75.0 °F - 73.0 °F 94% 30.14 in 8.0 mi Calm Calm - N/A   Clear
7:53 AM 77.0 °F - 73.9 °F 90% 30.15 in 9.0 mi NNW 3.5 mph - N/A   Clear
8:53 AM 81.0 °F 86.2 °F 73.9 °F 79% 30.17 in 10.0 mi Calm Calm - N/A   Partly Cloudy
9:53 AM 82.0 °F 87.9 °F 73.9 °F 76% 30.16 in 10.0 mi Calm Calm - N/A   Clear
10:53 AM 84.9 °F 92.1 °F 73.9 °F 69% 30.17 in 10.0 mi East 3.5 mph - N/A   Clear
11:53 AM 90.0 °F 97.9 °F 73.0 °F 57% 30.14 in 10.0 mi Calm Calm - N/A   Clear
12:53 PM 91.9 °F 101.3 °F 73.9 °F 55% 30.09 in 10.0 mi Variable 3.5 mph - N/A   Clear
1:44 PM 91.4 °F 102.5 °F 75.2 °F 59% 30.05 in 10.0 mi Variable 3.5 mph - N/A Thunderstorm Clear
1:53 PM 91.9 °F 100.7 °F 73.0 °F 54% 30.06 in 10.0 mi NW 3.5 mph - N/A Thunderstorm Thunderstorm
2:23 PM 78.8 °F - 66.2 °F 65% 30.05 in 10.0 mi NNE 18.4 mph 26.5 mph N/A Thunderstorm Mostly Cloudy
2:44 PM 73.4 °F - 66.2 °F 78% 30.07 in 2.0 mi NE 15.0 mph 26.5 mph 0.09 in Rain , Thunderstorm Thunderstorms and Rain
2:53 PM 73.9 °F - 68.0 °F 82% 30.09 in 10.0 mi ENE 11.5 mph - 0.09 in Rain , Thunderstorm Light Thunderstorms and Rain
3:48 PM 73.4 °F - 71.6 °F 94% 30.11 in 7.0 mi SSW 5.8 mph - 0.02 in Rain , Thunderstorm Light Rain
3:53 PM 73.0 °F - 71.1 °F 93% 30.13 in 6.0 mi SW 5.8 mph - 0.03 in Rain , Thunderstorm Light Rain
4:09 PM 73.4 °F - 71.6 °F 94% 30.13 in 6.0 mi West 6.9 mph - 0.01 in Rain Light Rain
4:20 PM 73.4 °F - 71.6 °F 94% 30.13 in 4.0 mi WSW 8.1 mph - 0.02 in Rain , Thunderstorm Rain
4:38 PM 73.4 °F - 71.6 °F 94% 30.11 in 2.5 mi West 9.2 mph - 0.08 in Rain , Thunderstorm Heavy Thunderstorms and Rain
4:53 PM 73.0 °F - 70.0 °F 90% 30.11 in 2.0 mi West 5.8 mph - 0.13 in Rain , Thunderstorm Heavy Rain
5:00 PM 73.4 °F - 69.8 °F 88% 30.09 in 2.5 mi West 5.8 mph - 0.02 in Rain Heavy Rain
5:11 PM 73.4 °F - 71.6 °F 94% 30.08 in 4.0 mi WNW 4.6 mph - 0.04 in Rain Rain
5:53 PM 73.0 °F - 72.0 °F 96% 30.07 in 7.0 mi NW 3.5 mph - 0.05 in Rain Light Rain
6:42 PM 73.4 °F - 71.6 °F 94% 30.07 in 9.0 mi Calm Calm - 0.01 in Rain Light Rain
6:53 PM 73.9 °F - 72.0 °F 93% 30.09 in 9.0 mi Calm Calm - 0.01 in   Mostly Cloudy
7:20 PM 73.4 °F - 71.6 °F 94% 30.07 in 8.0 mi NNW 5.8 mph - N/A   Scattered Clouds
7:53 PM 73.9 °F - 72.0 °F 93% 30.09 in 7.0 mi Calm Calm - N/A   Clear
8:53 PM 73.0 °F - 70.0 °F 90% 30.08 in 10.0 mi North 3.5 mph - N/A   Clear
9:53 PM 72.0 °F - 71.1 °F 97% 30.10 in 6.0 mi Calm Calm - N/A   Clear
10:14 PM 71.6 °F - 71.6 °F 100% 30.09 in 1.8 mi Calm Calm - N/A   Clear
10:18 PM 71.6 °F - 69.8 °F 94% 30.08 in 0.8 mi Calm Calm - N/A   Mist
10:53 PM 72.0 °F - 71.1 °F 97% 30.09 in 0.5 mi Calm Calm - N/A Fog Fog
11:02 PM 71.6 °F - 69.8 °F 94% 30.07 in 0.2 mi Calm Calm - N/A Fog Fog
11:12 PM 71.6 °F - 69.8 °F 94% 30.07 in 1.0 mi Calm Calm - N/A   Mist
11:16 PM 71.6 °F - 69.8 °F 94% 30.07 in 2.0 mi Calm Calm - N/A   Partly Cloudy
11:29 PM 71.6 °F - 69.8 °F 94% 30.07 in 3.0 mi Calm Calm - N/A   Partly Cloudy
11:53 PM 71.1 °F - 70.0 °F 96% 30.09 in 1.8 mi Calm Calm - N/A   Scattered Clouds
11:58 PM 71.6 °F - 69.8 °F 94% 30.07 in 0.8 mi Calm Calm - N/A   Mist